Time,TemperatureF,DewpointF,PressureIn,WindDirection,WindDirectionDegrees,WindSpeedMPH,WindSpeedGustMPH,Humidity,HourlyPrecipIn,Conditions,Clouds,dailyrainin,SoftwareType,DateUTC
2013-03-16 00:00:00,27.7,32.0,28.41,East,80,3.1,3.6,32,0.00,,,-99.99,wx200d/1.3,2013-03-16 04:00:00,
2013-03-16 00:02:00,27.7,32.0,28.41,East,100,3.6,4.0,31,0.00,,,-99.99,wx200d/1.3,2013-03-16 04:02:00,
2013-03-16 00:04:00,27.7,32.0,28.44,SSW,213,2.7,4.0,28,0.00,,,-99.99,wx200d/1.3,2013-03-16 04:04:00,
2013-03-16 00:08:00,27.5,32.0,28.44,SSE,149,2.2,2.2,26,0.00,,,-99.99,wx200d/1.3,2013-03-16 04:08:00,
2013-03-16 00:14:00,27.3,32.0,28.44,NW,314,2.7,5.8,23,0.00,,,-99.99,wx200d/1.3,2013-03-16 04:14:00,
2013-03-16 00:20:00,27.3,32.0,28.44,NW,319,2.2,5.4,23,0.00,,,-99.99,wx200d/1.3,2013-03-16 04:20:00,
2013-03-16 00:26:00,27.3,32.0,28.44,North,349,3.6,4.0,23,0.00,,,-99.99,wx200d/1.3,2013-03-16 04:26:00,
2013-03-16 00:32:00,27.3,32.0,28.44,NNE,19,2.7,2.7,23,0.00,,,-99.99,wx200d/1.3,2013-03-16 04:32:00,
2013-03-16 00:38:00,27.3,32.0,28.44,SSE,151,3.6,8.3,23,0.00,,,-99.99,wx200d/1.3,2013-03-16 04:38:00,
2013-03-16 00:44:00,27.1,32.0,28.44,North,0,2.7,3.1,23,0.00,,,-99.99,wx200d/1.3,2013-03-16 04:44:00,
2013-03-16 00:50:00,26.8,32.0,28.44,NNE,25,3.6,3.6,26,0.00,,,-99.99,wx200d/1.3,2013-03-16 04:50:00,
2013-03-16 00:56:00,26.6,32.0,28.44,SSW,194,2.7,3.6,26,0.00,,,-99.99,wx200d/1.3,2013-03-16 04:56:00,
2013-03-16 01:02:00,26.6,32.0,28.44,NNW,343,0.0,3.6,26,0.00,,,-99.99,wx200d/1.3,2013-03-16 05:02:00,
2013-03-16 01:08:00,26.6,32.0,28.44,SSE,147,2.2,0.0,24,0.00,,,-99.99,wx200d/1.3,2013-03-16 05:08:00,
2013-03-16 01:14:00,26.6,32.0,28.44,WSW,244,2.7,3.6,24,0.00,,,-99.99,wx200d/1.3,2013-03-16 05:14:00,
2013-03-16 01:20:00,26.6,32.0,28.44,North,353,2.7,2.7,24,0.00,,,-99.99,wx200d/1.3,2013-03-16 05:20:00,
2013-03-16 01:26:00,26.6,32.0,28.44,North,0,3.1,3.1,21,0.00,,,-99.99,wx200d/1.3,2013-03-16 05:26:00,
2013-03-16 01:32:00,26.4,32.0,28.44,South,187,3.1,0.0,21,0.00,,,-99.99,wx200d/1.3,2013-03-16 05:32:00,
2013-03-16 01:38:00,26.2,32.0,28.44,NNW,327,0.0,3.6,21,0.00,,,-99.99,wx200d/1.3,2013-03-16 05:38:00,
2013-03-16 01:44:00,26.2,32.0,28.44,SW,228,2.2,3.6,21,0.00,,,-99.99,wx200d/1.3,2013-03-16 05:44:00,
2013-03-16 01:50:00,26.2,32.0,28.47,NE,51,0.0,0.0,21,0.00,,,-99.99,wx200d/1.3,2013-03-16 05:50:00,
2013-03-16 01:56:00,26.1,32.0,28.47,NW,312,0.0,0.0,21,0.00,,,-99.99,wx200d/1.3,2013-03-16 05:56:00,
2013-03-16 02:02:00,26.1,32.0,28.47,SE,128,3.1,3.1,21,0.00,,,-99.99,wx200d/1.3,2013-03-16 06:02:00,
2013-03-16 02:08:00,26.1,32.0,28.47,NNW,334,0.0,0.0,21,0.00,,,-99.99,wx200d/1.3,2013-03-16 06:08:00,
2013-03-16 02:14:00,26.1,32.0,28.47,ENE,71,3.1,3.1,21,0.00,,,-99.99,wx200d/1.3,2013-03-16 06:14:00,
2013-03-16 02:20:00,25.9,32.0,28.47,North,9,2.7,2.7,21,0.00,,,-99.99,wx200d/1.3,2013-03-16 06:20:00,
2013-03-16 02:26:00,25.7,32.0,28.47,WNW,291,0.0,2.2,21,0.00,,,-99.99,wx200d/1.3,2013-03-16 06:26:00,
2013-03-16 02:32:00,25.5,32.0,28.47,NW,321,2.7,3.1,24,0.00,,,-99.99,wx200d/1.3,2013-03-16 06:32:00,
2013-03-16 02:38:00,25.3,32.0,28.47,NW,324,2.2,0.0,21,0.00,,,-99.99,wx200d/1.3,2013-03-16 06:38:00,
2013-03-16 02:44:00,25.3,32.0,28.47,West,274,0.0,2.7,21,0.00,,,-99.99,wx200d/1.3,2013-03-16 06:44:00,
2013-03-16 02:50:00,25.0,32.0,28.47,WSW,245,0.0,0.0,21,0.00,,,-99.99,wx200d/1.3,2013-03-16 06:50:00,
2013-03-16 02:56:00,24.8,32.0,28.47,NW,314,2.7,3.1,22,0.00,,,-99.99,wx200d/1.3,2013-03-16 06:56:00,
2013-03-16 03:02:00,24.6,32.0,28.47,NW,315,0.0,0.0,22,0.00,,,-99.99,wx200d/1.3,2013-03-16 07:02:00,
2013-03-16 03:08:00,24.4,32.0,28.47,WNW,287,0.0,0.0,22,0.00,,,-99.99,wx200d/1.3,2013-03-16 07:08:00,
2013-03-16 03:14:00,24.4,32.0,28.47,NW,315,2.2,2.7,22,0.00,,,-99.99,wx200d/1.3,2013-03-16 07:14:00,
2013-03-16 03:20:00,24.3,32.0,28.47,NW,326,2.2,0.0,24,0.00,,,-99.99,wx200d/1.3,2013-03-16 07:20:00,
2013-03-16 03:26:00,24.1,32.0,28.47,NNW,334,0.0,0.0,24,0.00,,,-99.99,wx200d/1.3,2013-03-16 07:26:00,
2013-03-16 03:32:00,23.9,32.0,28.47,NNW,332,0.0,0.0,24,0.00,,,-99.99,wx200d/1.3,2013-03-16 07:32:00,
2013-03-16 03:38:00,23.9,32.0,28.47,North,353,2.7,3.6,24,0.00,,,-99.99,wx200d/1.3,2013-03-16 07:38:00,
2013-03-16 03:44:00,23.7,32.0,28.47,NNW,337,2.7,2.7,24,0.00,,,-99.99,wx200d/1.3,2013-03-16 07:44:00,
2013-03-16 03:50:00,23.7,32.0,28.47,SE,124,0.0,3.1,24,0.00,,,-99.99,wx200d/1.3,2013-03-16 07:50:00,
2013-03-16 03:56:00,23.5,32.0,28.47,NNE,21,0.0,0.0,22,0.00,,,-99.99,wx200d/1.3,2013-03-16 07:56:00,
2013-03-16 04:02:00,23.5,32.0,28.47,North,353,0.0,3.1,22,0.00,,,-99.99,wx200d/1.3,2013-03-16 08:02:00,
2013-03-16 04:08:00,23.5,32.0,28.47,North,353,0.0,3.1,22,0.00,,,-99.99,wx200d/1.3,2013-03-16 08:08:00,
2013-03-16 04:14:00,23.4,32.0,28.47,WNW,288,0.0,0.0,22,0.00,,,-99.99,wx200d/1.3,2013-03-16 08:14:00,
2013-03-16 04:20:00,23.5,32.0,28.47,WNW,286,0.0,0.0,22,0.00,,,-99.99,wx200d/1.3,2013-03-16 08:20:00,
2013-03-16 04:26:00,23.4,32.0,28.47,NW,326,0.0,0.0,22,0.00,,,-99.99,wx200d/1.3,2013-03-16 08:26:00,
2013-03-16 04:32:00,23.0,32.0,28.50,North,353,2.7,3.1,22,0.00,,,-99.99,wx200d/1.3,2013-03-16 08:32:00,
2013-03-16 04:38:00,22.8,32.0,28.50,North,353,0.0,2.7,22,0.00,,,-99.99,wx200d/1.3,2013-03-16 08:38:00,
2013-03-16 04:44:00,22.8,32.0,28.50,NW,315,0.0,0.0,22,0.00,,,-99.99,wx200d/1.3,2013-03-16 08:44:00,
2013-03-16 04:50:00,22.6,32.0,28.50,North,357,0.0,0.0,22,0.00,,,-99.99,wx200d/1.3,2013-03-16 08:50:00,
2013-03-16 04:56:00,22.5,32.0,28.50,NNW,338,0.0,0.0,22,0.00,,,-99.99,wx200d/1.3,2013-03-16 08:56:00,
2013-03-16 05:02:00,22.3,32.0,28.50,WNW,288,0.0,0.0,22,0.00,,,-99.99,wx200d/1.3,2013-03-16 09:02:00,
2013-03-16 05:08:00,22.1,32.0,28.50,NNW,342,0.0,0.0,22,0.00,,,-99.99,wx200d/1.3,2013-03-16 09:08:00,
2013-03-16 05:14:00,21.9,32.0,28.50,WNW,291,0.0,0.0,22,0.00,,,-99.99,wx200d/1.3,2013-03-16 09:14:00,
2013-03-16 05:20:00,21.7,32.0,28.50,NW,318,0.0,0.0,22,0.00,,,-99.99,wx200d/1.3,2013-03-16 09:20:00,
2013-03-16 05:26:00,21.7,32.0,28.50,NNW,332,2.2,0.0,22,0.00,,,-99.99,wx200d/1.3,2013-03-16 09:26:00,
2013-03-16 05:32:00,21.6,32.0,28.50,West,265,3.1,3.1,22,0.00,,,-99.99,wx200d/1.3,2013-03-16 09:32:00,
2013-03-16 05:38:00,21.6,32.0,28.50,North,357,0.0,0.0,22,0.00,,,-99.99,wx200d/1.3,2013-03-16 09:38:00,
2013-03-16 05:44:00,21.4,32.0,28.50,NNW,335,0.0,0.0,22,0.00,,,-99.99,wx200d/1.3,2013-03-16 09:44:00,
2013-03-16 05:50:00,21.2,32.0,28.53,WNW,288,0.0,0.0,22,0.00,,,-99.99,wx200d/1.3,2013-03-16 09:50:00,
2013-03-16 05:56:00,21.2,32.0,28.53,NW,318,0.0,0.0,22,0.00,,,-99.99,wx200d/1.3,2013-03-16 09:56:00,
2013-03-16 06:02:00,21.0,32.0,28.53,North,353,0.0,2.7,22,0.00,,,-99.99,wx200d/1.3,2013-03-16 10:02:00,
2013-03-16 06:08:00,21.0,32.0,28.53,North,353,3.1,3.6,22,0.00,,,-99.99,wx200d/1.3,2013-03-16 10:08:00,
2013-03-16 06:14:00,21.0,32.0,28.53,North,353,2.7,4.0,22,0.00,,,-99.99,wx200d/1.3,2013-03-16 10:14:00,
2013-03-16 06:20:00,21.0,32.0,28.53,SSW,193,2.2,3.1,22,0.00,,,-99.99,wx200d/1.3,2013-03-16 10:20:00,
2013-03-16 06:26:00,20.8,32.0,28.53,ESE,112,0.0,2.7,22,0.00,,,-99.99,wx200d/1.3,2013-03-16 10:26:00,
2013-03-16 06:32:00,20.7,32.0,28.53,ESE,115,0.0,0.0,22,0.00,,,-99.99,wx200d/1.3,2013-03-16 10:32:00,
2013-03-16 06:38:00,20.5,32.0,28.53,NNE,23,0.0,0.0,22,0.00,,,-99.99,wx200d/1.3,2013-03-16 10:38:00,
2013-03-16 06:44:00,20.5,32.0,28.53,NNW,343,0.0,0.0,22,0.00,,,-99.99,wx200d/1.3,2013-03-16 10:44:00,
2013-03-16 06:50:00,20.3,32.0,28.53,North,353,0.0,0.0,22,0.00,,,-99.99,wx200d/1.3,2013-03-16 10:50:00,
2013-03-16 06:56:00,20.3,32.0,28.53,West,263,2.2,2.7,22,0.00,,,-99.99,wx200d/1.3,2013-03-16 10:56:00,
2013-03-16 07:04:00,20.3,32.0,28.53,West,263,2.7,2.7,22,0.00,,,-99.99,wx200d/1.3,2013-03-16 11:04:00,
2013-03-16 07:10:00,20.1,32.0,28.53,WNW,292,0.0,2.7,22,0.00,,,-99.99,wx200d/1.3,2013-03-16 11:10:00,
2013-03-16 07:16:00,19.9,32.0,28.53,NW,316,0.0,0.0,22,0.00,,,-99.99,wx200d/1.3,2013-03-16 11:16:00,
2013-03-16 07:22:00,19.9,32.0,28.56,North,353,0.0,0.0,22,0.00,,,-99.99,wx200d/1.3,2013-03-16 11:22:00,
2013-03-16 07:28:00,19.9,32.0,28.56,North,353,0.0,0.0,22,0.00,,,-99.99,wx200d/1.3,2013-03-16 11:28:00,
2013-03-16 07:34:00,19.9,32.0,28.53,North,8,0.0,2.2,22,0.00,,,-99.99,wx200d/1.3,2013-03-16 11:34:00,
2013-03-16 07:40:00,19.8,32.0,28.53,NNW,348,0.0,0.0,22,0.00,,,-99.99,wx200d/1.3,2013-03-16 11:40:00,
2013-03-16 07:46:00,19.9,32.0,28.53,NNW,341,0.0,0.0,22,0.00,,,-99.99,wx200d/1.3,2013-03-16 11:46:00,
2013-03-16 07:52:00,19.9,32.0,28.56,NE,50,0.0,0.0,22,0.00,,,-99.99,wx200d/1.3,2013-03-16 11:52:00,
2013-03-16 07:58:00,19.9,32.0,28.56,WSW,250,0.0,0.0,22,0.00,,,-99.99,wx200d/1.3,2013-03-16 11:58:00,
2013-03-16 08:04:00,20.1,32.0,28.56,NW,312,2.2,3.6,22,0.00,,,-99.99,wx200d/1.3,2013-03-16 12:04:00,
2013-03-16 08:10:00,20.3,32.0,28.56,NE,48,0.0,0.0,22,0.00,,,-99.99,wx200d/1.3,2013-03-16 12:10:00,
2013-03-16 08:16:00,20.3,32.0,28.56,SE,142,0.0,0.0,22,0.00,,,-99.99,wx200d/1.3,2013-03-16 12:16:00,
2013-03-16 08:22:00,20.5,32.0,28.56,NE,39,0.0,0.0,22,0.00,,,-99.99,wx200d/1.3,2013-03-16 12:22:00,
2013-03-16 08:28:00,20.7,32.0,28.56,West,278,0.0,0.0,22,0.00,,,-99.99,wx200d/1.3,2013-03-16 12:28:00,
2013-03-16 08:34:00,20.8,32.0,28.56,North,353,2.7,3.6,22,0.00,,,-99.99,wx200d/1.3,2013-03-16 12:34:00,
2013-03-16 08:40:00,20.8,32.0,28.56,North,353,3.1,4.0,22,0.00,,,-99.99,wx200d/1.3,2013-03-16 12:40:00,
2013-03-16 08:46:00,21.0,32.0,28.56,SSW,196,0.0,2.7,22,0.00,,,-99.99,wx200d/1.3,2013-03-16 12:46:00,
2013-03-16 08:52:00,21.2,32.0,28.56,North,353,3.1,5.4,22,0.00,,,-99.99,wx200d/1.3,2013-03-16 12:52:00,
2013-03-16 08:58:00,21.6,32.0,28.56,North,353,3.6,3.6,22,0.00,,,-99.99,wx200d/1.3,2013-03-16 12:58:00,
2013-03-16 09:04:00,21.7,32.0,28.56,North,357,0.0,2.2,22,0.00,,,-99.99,wx200d/1.3,2013-03-16 13:04:00,
2013-03-16 09:10:00,21.9,32.0,28.56,North,5,0.0,0.0,22,0.00,,,-99.99,wx200d/1.3,2013-03-16 13:10:00,
2013-03-16 09:16:00,22.3,32.0,28.56,NNE,18,2.7,3.6,22,0.00,,,-99.99,wx200d/1.3,2013-03-16 13:16:00,
2013-03-16 09:22:00,23.2,32.0,28.56,NW,321,3.6,3.6,22,0.00,,,-99.99,wx200d/1.3,2013-03-16 13:22:00,
2013-03-16 09:28:00,23.5,32.0,28.56,NNE,18,0.0,0.0,22,0.00,,,-99.99,wx200d/1.3,2013-03-16 13:28:00,
2013-03-16 09:34:00,24.4,32.0,28.56,WSW,240,0.0,0.0,22,0.00,,,-99.99,wx200d/1.3,2013-03-16 13:34:00,
2013-03-16 09:40:00,25.3,32.0,28.56,North,357,2.7,0.0,21,0.00,,,-99.99,wx200d/1.3,2013-03-16 13:40:00,
2013-03-16 09:46:00,25.9,32.0,28.56,WNW,288,0.0,0.0,21,0.00,,,-99.99,wx200d/1.3,2013-03-16 13:46:00,
2013-03-16 09:52:00,26.1,32.0,28.56,SW,214,0.0,0.0,21,0.00,,,-99.99,wx200d/1.3,2013-03-16 13:52:00,
2013-03-16 09:58:00,26.2,32.0,28.56,NNW,337,0.0,0.0,21,0.00,,,-99.99,wx200d/1.3,2013-03-16 13:58:00,
2013-03-16 10:04:00,27.0,32.0,28.56,NNE,26,0.0,0.0,21,0.00,,,-99.99,wx200d/1.3,2013-03-16 14:04:00,
2013-03-16 10:10:00,28.6,32.0,28.56,NNE,13,3.6,0.0,20,0.00,,,-99.99,wx200d/1.3,2013-03-16 14:10:00,
2013-03-16 10:16:00,29.7,32.0,28.56,WNW,282,0.0,0.0,20,0.00,,,-99.99,wx200d/1.3,2013-03-16 14:16:00,
2013-03-16 10:22:00,29.7,32.0,28.56,West,260,2.7,2.7,20,0.00,,,-99.99,wx200d/1.3,2013-03-16 14:22:00,
2013-03-16 10:28:00,28.9,32.0,28.56,NW,306,2.2,2.2,20,0.00,,,-99.99,wx200d/1.3,2013-03-16 14:28:00,
2013-03-16 10:34:00,28.9,32.0,28.56,NW,317,3.6,3.6,20,0.00,,,-99.99,wx200d/1.3,2013-03-16 14:34:00,
2013-03-16 10:40:00,28.9,32.0,28.56,NNE,22,2.7,3.6,20,0.00,,,-99.99,wx200d/1.3,2013-03-16 14:40:00,
2013-03-16 10:46:00,28.9,32.0,28.56,North,0,2.2,3.6,20,0.00,,,-99.99,wx200d/1.3,2013-03-16 14:46:00,
2013-03-16 10:52:00,29.3,32.0,28.56,West,263,0.0,0.0,20,0.00,,,-99.99,wx200d/1.3,2013-03-16 14:52:00,
2013-03-16 10:58:00,29.7,32.0,28.56,South,180,0.0,0.0,20,0.00,,,-99.99,wx200d/1.3,2013-03-16 14:58:00,
2013-03-16 11:04:00,29.8,32.0,28.56,SSW,207,2.7,3.6,20,0.00,,,-99.99,wx200d/1.3,2013-03-16 15:04:00,
2013-03-16 11:10:00,29.5,32.0,28.56,SW,218,0.0,0.0,20,0.00,,,-99.99,wx200d/1.3,2013-03-16 15:10:00,
2013-03-16 11:16:00,29.1,32.0,28.56,West,259,2.7,2.7,20,0.00,,,-99.99,wx200d/1.3,2013-03-16 15:16:00,
2013-03-16 11:22:00,28.8,32.0,28.56,WSW,247,2.7,2.7,20,0.00,,,-99.99,wx200d/1.3,2013-03-16 15:22:00,
2013-03-16 11:28:00,28.6,32.0,28.56,South,178,0.0,0.0,20,0.00,,,-99.99,wx200d/1.3,2013-03-16 15:28:00,
2013-03-16 11:34:00,28.9,32.0,28.56,SW,226,0.0,2.2,20,0.00,,,-99.99,wx200d/1.3,2013-03-16 15:34:00,
2013-03-16 11:40:00,29.7,32.0,28.56,SSW,205,3.1,4.9,20,0.00,,,-99.99,wx200d/1.3,2013-03-16 15:40:00,
2013-03-16 11:46:00,30.9,32.0,28.56,WSW,251,0.0,3.6,20,0.00,,,-99.99,wx200d/1.3,2013-03-16 15:46:00,
2013-03-16 11:52:00,30.4,32.0,28.56,NW,318,0.0,0.0,20,0.00,,,-99.99,wx200d/1.3,2013-03-16 15:52:00,
2013-03-16 11:58:00,29.5,32.0,28.56,East,82,0.0,0.0,20,0.00,,,-99.99,wx200d/1.3,2013-03-16 15:58:00,
2013-03-16 12:04:00,29.7,32.0,28.56,NNE,13,0.0,0.0,20,0.00,,,-99.99,wx200d/1.3,2013-03-16 16:04:00,
2013-03-16 12:10:00,31.1,32.0,28.56,SW,229,0.0,2.7,20,0.00,,,-99.99,wx200d/1.3,2013-03-16 16:10:00,
2013-03-16 12:16:00,32.5,32.0,28.56,SSW,200,0.0,0.0,20,0.00,,,-99.99,wx200d/1.3,2013-03-16 16:16:00,
2013-03-16 12:22:00,33.8,32.0,28.56,West,271,4.0,4.9,20,0.00,,,-99.99,wx200d/1.3,2013-03-16 16:22:00,
2013-03-16 12:28:00,34.0,32.0,28.56,ENE,71,2.7,3.6,20,0.00,,,-99.99,wx200d/1.3,2013-03-16 16:28:00,
2013-03-16 12:34:00,33.6,32.0,28.53,West,261,4.5,4.5,20,0.00,,,-99.99,wx200d/1.3,2013-03-16 16:34:00,
2013-03-16 12:40:00,33.4,32.0,28.53,SSW,208,0.0,0.0,20,0.00,,,-99.99,wx200d/1.3,2013-03-16 16:40:00,
2013-03-16 12:46:00,33.1,32.0,28.53,South,183,3.6,3.6,20,0.00,,,-99.99,wx200d/1.3,2013-03-16 16:46:00,
2013-03-16 12:52:00,33.6,32.0,28.53,NNW,327,0.0,0.0,20,0.00,,,-99.99,wx200d/1.3,2013-03-16 16:52:00,
2013-03-16 12:58:00,34.9,32.0,28.53,North,5,4.0,4.0,20,0.00,,,-99.99,wx200d/1.3,2013-03-16 16:58:00,
2013-03-16 13:04:00,35.6,32.0,28.53,North,353,2.7,2.7,19,0.00,,,-99.99,wx200d/1.3,2013-03-16 17:04:00,
2013-03-16 13:10:00,36.0,32.0,28.53,West,265,0.0,0.0,19,0.00,,,-99.99,wx200d/1.3,2013-03-16 17:10:00,
2013-03-16 13:16:00,37.2,32.0,28.53,South,184,2.2,2.7,19,0.00,,,-99.99,wx200d/1.3,2013-03-16 17:16:00,
2013-03-16 13:22:00,37.2,32.0,28.53,SW,227,0.0,2.7,19,0.00,,,-99.99,wx200d/1.3,2013-03-16 17:22:00,
2013-03-16 13:28:00,36.5,32.0,28.53,ENE,76,0.0,2.7,19,0.00,,,-99.99,wx200d/1.3,2013-03-16 17:28:00,
2013-03-16 13:34:00,36.9,32.0,28.53,ENE,67,0.0,2.7,19,0.00,,,-99.99,wx200d/1.3,2013-03-16 17:34:00,
2013-03-16 13:40:00,36.7,32.0,28.53,NNW,334,4.0,4.0,19,0.00,,,-99.99,wx200d/1.3,2013-03-16 17:40:00,
2013-03-16 13:46:00,36.5,32.0,28.53,SSE,164,4.9,7.6,19,0.00,,,-99.99,wx200d/1.3,2013-03-16 17:46:00,
2013-03-16 13:52:00,35.1,32.0,28.53,WNW,295,2.2,3.6,20,0.00,,,-99.99,wx200d/1.3,2013-03-16 17:52:00,
2013-03-16 13:58:00,34.7,32.0,28.53,NNW,327,0.0,3.6,20,0.00,,,-99.99,wx200d/1.3,2013-03-16 17:58:00,
2013-03-16 14:04:00,34.5,32.0,28.53,SE,137,0.0,0.0,20,0.00,,,-99.99,wx200d/1.3,2013-03-16 18:04:00,
2013-03-16 14:10:00,35.2,32.0,28.53,West,266,0.0,0.0,20,0.00,,,-99.99,wx200d/1.3,2013-03-16 18:10:00,
2013-03-16 14:16:00,35.6,32.0,28.53,NNE,25,0.0,0.0,19,0.00,,,-99.99,wx200d/1.3,2013-03-16 18:16:00,
2013-03-16 14:22:00,35.8,32.0,28.53,West,277,2.2,6.7,19,0.00,,,-99.99,wx200d/1.3,2013-03-16 18:22:00,
2013-03-16 14:28:00,35.4,32.0,28.53,WNW,297,2.7,2.7,20,0.00,,,-99.99,wx200d/1.3,2013-03-16 18:28:00,
2013-03-16 14:34:00,34.3,32.0,28.53,West,260,0.0,0.0,20,0.00,,,-99.99,wx200d/1.3,2013-03-16 18:34:00,
2013-03-16 14:40:00,34.0,32.0,28.53,SSW,207,0.0,0.0,20,0.00,,,-99.99,wx200d/1.3,2013-03-16 18:40:00,
2013-03-16 14:46:00,33.8,32.0,28.53,SSE,152,2.2,2.7,20,0.00,,,-99.99,wx200d/1.3,2013-03-16 18:46:00,
2013-03-16 14:52:00,33.3,32.0,28.53,WSW,241,4.0,4.0,20,0.00,,,-99.99,wx200d/1.3,2013-03-16 18:52:00,
2013-03-16 14:58:00,33.3,32.0,28.53,NNW,341,0.0,0.0,20,0.00,,,-99.99,wx200d/1.3,2013-03-16 18:58:00,
2013-03-16 15:04:00,33.4,32.0,28.53,SSW,199,0.0,3.1,20,0.00,,,-99.99,wx200d/1.3,2013-03-16 19:04:00,
2013-03-16 15:10:00,33.4,32.0,28.53,North,357,2.7,2.7,20,0.00,,,-99.99,wx200d/1.3,2013-03-16 19:10:00,
2013-03-16 15:16:00,33.3,32.0,28.53,NNW,346,0.0,0.0,20,0.00,,,-99.99,wx200d/1.3,2013-03-16 19:16:00,
2013-03-16 15:22:00,33.8,32.0,28.53,North,353,3.1,3.1,20,0.00,,,-99.99,wx200d/1.3,2013-03-16 19:22:00,
2013-03-16 15:28:00,34.0,32.0,28.53,NW,314,0.0,5.4,20,0.00,,,-99.99,wx200d/1.3,2013-03-16 19:28:00,
2013-03-16 15:34:00,34.0,32.0,28.53,NW,325,0.0,0.0,20,0.00,,,-99.99,wx200d/1.3,2013-03-16 19:34:00,
2013-03-16 15:40:00,34.0,32.0,28.53,North,357,2.7,4.0,20,0.00,,,-99.99,wx200d/1.3,2013-03-16 19:40:00,
2013-03-16 15:46:00,33.8,32.0,28.53,NE,54,0.0,0.0,20,0.00,,,-99.99,wx200d/1.3,2013-03-16 19:46:00,
2013-03-16 15:52:00,34.0,32.0,28.53,North,0,3.1,0.0,20,0.00,,,-99.99,wx200d/1.3,2013-03-16 19:52:00,
2013-03-16 15:58:00,33.6,32.0,28.53,NNW,332,0.0,0.0,20,0.00,,,-99.99,wx200d/1.3,2013-03-16 19:58:00,
2013-03-16 16:04:00,33.3,32.0,28.50,NNW,348,2.7,0.0,20,0.00,,,-99.99,wx200d/1.3,2013-03-16 20:04:00,
2013-03-16 16:10:00,33.3,32.0,28.50,NW,306,0.0,0.0,20,0.00,,,-99.99,wx200d/1.3,2013-03-16 20:10:00,
2013-03-16 16:16:00,33.6,32.0,28.50,NW,310,0.0,0.0,20,0.00,,,-99.99,wx200d/1.3,2013-03-16 20:16:00,
2013-03-16 16:22:00,33.3,32.0,28.50,SSW,208,0.0,3.6,20,0.00,,,-99.99,wx200d/1.3,2013-03-16 20:22:00,
2013-03-16 16:28:00,33.3,32.0,28.50,WNW,300,0.0,0.0,20,0.00,,,-99.99,wx200d/1.3,2013-03-16 20:28:00,
2013-03-16 16:34:00,33.4,32.0,28.50,SW,228,0.0,0.0,20,0.00,,,-99.99,wx200d/1.3,2013-03-16 20:34:00,
2013-03-16 16:40:00,33.1,32.0,28.50,North,350,0.0,0.0,20,0.00,,,-99.99,wx200d/1.3,2013-03-16 20:40:00,
2013-03-16 16:46:00,33.1,32.0,28.50,SSW,212,0.0,0.0,20,0.00,,,-99.99,wx200d/1.3,2013-03-16 20:46:00,
2013-03-16 16:52:00,33.1,32.0,28.50,North,11,0.0,0.0,20,0.00,,,-99.99,wx200d/1.3,2013-03-16 20:52:00,
2013-03-16 16:58:00,33.1,32.0,28.50,South,176,0.0,0.0,20,0.00,,,-99.99,wx200d/1.3,2013-03-16 20:58:00,
2013-03-16 17:04:00,33.1,32.0,28.50,SW,235,2.7,0.0,20,0.00,,,-99.99,wx200d/1.3,2013-03-16 21:04:00,
2013-03-16 17:10:00,33.1,32.0,28.50,North,353,0.0,2.2,20,0.00,,,-99.99,wx200d/1.3,2013-03-16 21:10:00,
2013-03-16 17:16:00,32.7,32.0,28.50,NW,313,0.0,0.0,20,0.00,,,-99.99,wx200d/1.3,2013-03-16 21:16:00,
2013-03-16 17:22:00,32.2,32.0,28.50,West,272,2.2,3.1,20,0.00,,,-99.99,wx200d/1.3,2013-03-16 21:22:00,
2013-03-16 17:28:00,32.2,32.0,28.50,SSW,212,0.0,2.2,20,0.00,,,-99.99,wx200d/1.3,2013-03-16 21:28:00,
2013-03-16 17:34:00,32.2,32.0,28.50,SSW,193,3.6,3.6,20,0.00,,,-99.99,wx200d/1.3,2013-03-16 21:34:00,
2013-03-16 17:40:00,31.8,32.0,28.50,South,178,2.2,0.0,20,0.00,,,-99.99,wx200d/1.3,2013-03-16 21:40:00,
2013-03-16 17:46:00,31.8,32.0,28.50,SSW,193,0.0,2.7,20,0.00,,,-99.99,wx200d/1.3,2013-03-16 21:46:00,
2013-03-16 17:52:00,31.6,32.0,28.50,NNW,344,0.0,0.0,20,0.00,,,-99.99,wx200d/1.3,2013-03-16 21:52:00,
2013-03-16 17:58:00,31.3,32.0,28.50,NNW,329,0.0,0.0,20,0.00,,,-99.99,wx200d/1.3,2013-03-16 21:58:00,
2013-03-16 18:04:00,31.1,32.0,28.50,NNW,329,0.0,0.0,20,0.00,,,-99.99,wx200d/1.3,2013-03-16 22:04:00,
2013-03-16 18:10:00,31.1,32.0,28.50,NNW,329,0.0,0.0,20,0.00,,,-99.99,wx200d/1.3,2013-03-16 22:10:00,
2013-03-16 18:16:00,31.1,32.0,28.50,NNW,330,0.0,0.0,20,0.00,,,-99.99,wx200d/1.3,2013-03-16 22:16:00,
2013-03-16 18:22:00,30.9,32.0,28.50,NNW,342,0.0,0.0,20,0.00,,,-99.99,wx200d/1.3,2013-03-16 22:22:00,
2013-03-16 18:28:00,30.7,32.0,28.50,NNW,342,0.0,0.0,20,0.00,,,-99.99,wx200d/1.3,2013-03-16 22:28:00,
2013-03-16 18:34:00,30.7,32.0,28.50,NNW,342,0.0,0.0,20,0.00,,,-99.99,wx200d/1.3,2013-03-16 22:34:00,
2013-03-16 18:40:00,30.6,32.0,28.50,NNW,342,0.0,0.0,20,0.00,,,-99.99,wx200d/1.3,2013-03-16 22:40:00,
2013-03-16 18:46:00,30.6,32.0,28.50,NNW,342,0.0,0.0,20,0.00,,,-99.99,wx200d/1.3,2013-03-16 22:46:00,
2013-03-16 18:52:00,30.4,32.0,28.50,NNW,342,0.0,0.0,20,0.00,,,-99.99,wx200d/1.3,2013-03-16 22:52:00,
2013-03-16 18:58:00,30.2,32.0,28.50,NNW,342,0.0,0.0,20,0.00,,,-99.99,wx200d/1.3,2013-03-16 22:58:00,
2013-03-16 19:04:00,30.2,32.0,28.50,NNW,342,0.0,0.0,20,0.00,,,-99.99,wx200d/1.3,2013-03-16 23:04:00,
2013-03-16 19:10:00,30.2,32.0,28.50,NNW,342,0.0,0.0,20,0.00,,,-99.99,wx200d/1.3,2013-03-16 23:10:00,
2013-03-16 19:16:00,30.0,32.0,28.50,NNW,342,0.0,0.0,20,0.00,,,-99.99,wx200d/1.3,2013-03-16 23:16:00,
2013-03-16 19:22:00,30.0,32.0,28.53,NNW,342,0.0,0.0,20,0.00,,,-99.99,wx200d/1.3,2013-03-16 23:22:00,
2013-03-16 19:28:00,29.8,32.0,28.53,NNW,342,0.0,0.0,20,0.00,,,-99.99,wx200d/1.3,2013-03-16 23:28:00,
2013-03-16 19:34:00,29.8,32.0,28.53,NNW,342,0.0,0.0,20,0.00,,,-99.99,wx200d/1.3,2013-03-16 23:34:00,
2013-03-16 19:40:00,29.8,32.0,28.53,NNW,342,0.0,0.0,20,0.00,,,-99.99,wx200d/1.3,2013-03-16 23:40:00,
2013-03-16 19:46:00,29.7,32.0,28.53,NNW,342,0.0,0.0,20,0.00,,,-99.99,wx200d/1.3,2013-03-16 23:46:00,
2013-03-16 19:52:00,29.7,32.0,28.53,NNW,342,0.0,0.0,20,0.00,,,-99.99,wx200d/1.3,2013-03-16 23:52:00,
2013-03-16 19:58:00,29.5,32.0,28.53,NNW,342,0.0,0.0,20,0.00,,,-99.99,wx200d/1.3,2013-03-16 23:58:00,
2013-03-16 20:04:00,29.5,32.0,28.53,NNW,342,0.0,0.0,20,0.00,,,-99.99,wx200d/1.3,2013-03-17 00:04:00,
2013-03-16 20:10:00,29.5,32.0,28.53,NNW,342,0.0,0.0,20,0.00,,,-99.99,wx200d/1.3,2013-03-17 00:10:00,
2013-03-16 20:16:00,29.5,32.0,28.53,NNW,342,0.0,0.0,20,0.00,,,-99.99,wx200d/1.3,2013-03-17 00:16:00,
2013-03-16 20:22:00,29.5,32.0,28.53,NNW,342,0.0,0.0,20,0.00,,,-99.99,wx200d/1.3,2013-03-17 00:22:00,
2013-03-16 20:28:00,29.5,32.0,28.53,NNW,342,0.0,0.0,20,0.00,,,-99.99,wx200d/1.3,2013-03-17 00:28:00,
2013-03-16 20:34:00,29.5,32.0,28.53,NNW,342,0.0,0.0,20,0.00,,,-99.99,wx200d/1.3,2013-03-17 00:34:00,
2013-03-16 20:40:00,29.5,32.0,28.53,NNW,342,0.0,0.0,20,0.00,,,-99.99,wx200d/1.3,2013-03-17 00:40:00,
2013-03-16 20:46:00,29.3,32.0,28.53,NNW,342,0.0,0.0,20,0.00,,,-99.99,wx200d/1.3,2013-03-17 00:46:00,
2013-03-16 20:52:00,29.1,32.0,28.56,NNW,342,0.0,0.0,20,0.00,,,-99.99,wx200d/1.3,2013-03-17 00:52:00,
2013-03-16 20:58:00,28.9,32.0,28.56,NNW,342,0.0,0.0,20,0.00,,,-99.99,wx200d/1.3,2013-03-17 00:58:00,
2013-03-16 21:04:00,28.9,32.0,28.56,NNW,342,0.0,0.0,20,0.00,,,-99.99,wx200d/1.3,2013-03-17 01:04:00,
2013-03-16 21:10:00,28.8,32.0,28.56,NNW,335,0.0,0.0,20,0.00,,,-99.99,wx200d/1.3,2013-03-17 01:10:00,
2013-03-16 21:16:00,28.8,32.0,28.56,NNW,335,0.0,0.0,20,0.00,,,-99.99,wx200d/1.3,2013-03-17 01:16:00,
2013-03-16 21:22:00,28.6,32.0,28.56,NNW,335,0.0,0.0,20,0.00,,,-99.99,wx200d/1.3,2013-03-17 01:22:00,
2013-03-16 21:28:00,28.4,32.0,28.56,North,353,0.0,0.0,21,0.00,,,-99.99,wx200d/1.3,2013-03-17 01:28:00,
2013-03-16 21:34:00,28.2,32.0,28.56,North,357,2.2,0.0,21,0.00,,,-99.99,wx200d/1.3,2013-03-17 01:34:00,
2013-03-16 21:40:00,28.0,32.0,28.56,North,0,0.0,0.0,21,0.00,,,-99.99,wx200d/1.3,2013-03-17 01:40:00,
2013-03-16 21:46:00,28.0,32.0,28.56,North,0,0.0,0.0,21,0.00,,,-99.99,wx200d/1.3,2013-03-17 01:46:00,
2013-03-16 21:52:00,27.9,32.0,28.56,North,0,0.0,0.0,21,0.00,,,-99.99,wx200d/1.3,2013-03-17 01:52:00,
2013-03-16 21:58:00,27.5,32.0,28.56,North,0,0.0,0.0,21,0.00,,,-99.99,wx200d/1.3,2013-03-17 01:58:00,
2013-03-16 22:04:00,27.1,32.0,28.56,NNW,342,0.0,0.0,21,0.00,,,-99.99,wx200d/1.3,2013-03-17 02:04:00,
2013-03-16 22:10:00,27.0,32.0,28.56,NNW,343,0.0,0.0,21,0.00,,,-99.99,wx200d/1.3,2013-03-17 02:10:00,
2013-03-16 22:16:00,26.8,32.0,28.56,North,3,0.0,0.0,21,0.00,,,-99.99,wx200d/1.3,2013-03-17 02:16:00,
2013-03-16 22:22:00,26.4,32.0,28.59,North,0,0.0,0.0,21,0.00,,,-99.99,wx200d/1.3,2013-03-17 02:22:00,
2013-03-16 22:28:00,26.2,32.0,28.59,NNW,333,0.0,0.0,21,0.00,,,-99.99,wx200d/1.3,2013-03-17 02:28:00,
2013-03-16 22:34:00,26.1,32.0,28.59,NNW,333,0.0,0.0,21,0.00,,,-99.99,wx200d/1.3,2013-03-17 02:34:00,
2013-03-16 22:40:00,25.9,32.0,28.59,NNW,332,0.0,0.0,21,0.00,,,-99.99,wx200d/1.3,2013-03-17 02:40:00,
2013-03-16 22:46:00,25.7,32.0,28.59,NNW,332,0.0,0.0,21,0.00,,,-99.99,wx200d/1.3,2013-03-17 02:46:00,
2013-03-16 22:52:00,25.5,32.0,28.59,NNW,332,0.0,0.0,21,0.00,,,-99.99,wx200d/1.3,2013-03-17 02:52:00,
2013-03-16 22:58:00,25.3,32.0,28.59,NNW,332,0.0,0.0,21,0.00,,,-99.99,wx200d/1.3,2013-03-17 02:58:00,
2013-03-16 23:04:00,25.2,32.0,28.59,NNW,333,0.0,0.0,21,0.00,,,-99.99,wx200d/1.3,2013-03-17 03:04:00,
2013-03-16 23:10:00,24.8,32.0,28.59,NNW,332,0.0,0.0,22,0.00,,,-99.99,wx200d/1.3,2013-03-17 03:10:00,
2013-03-16 23:16:00,24.6,32.0,28.59,NNW,333,0.0,0.0,22,0.00,,,-99.99,wx200d/1.3,2013-03-17 03:16:00,
2013-03-16 23:22:00,24.6,32.0,28.59,NNW,333,0.0,0.0,22,0.00,,,-99.99,wx200d/1.3,2013-03-17 03:22:00,
2013-03-16 23:28:00,24.4,32.0,28.59,NNW,333,0.0,0.0,22,0.00,,,-99.99,wx200d/1.3,2013-03-17 03:28:00,
2013-03-16 23:34:00,24.4,32.0,28.59,NNW,333,0.0,0.0,22,0.00,,,-99.99,wx200d/1.3,2013-03-17 03:34:00,
2013-03-16 23:40:00,24.3,32.0,28.59,NNW,333,0.0,0.0,22,0.00,,,-99.99,wx200d/1.3,2013-03-17 03:40:00,
2013-03-16 23:46:00,24.1,32.0,28.59,NNW,333,0.0,0.0,22,0.00,,,-99.99,wx200d/1.3,2013-03-17 03:46:00,
2013-03-16 23:52:00,23.9,32.0,28.59,NNW,333,0.0,0.0,22,0.00,,,-99.99,wx200d/1.3,2013-03-17 03:52:00,
2013-03-16 23:58:00,23.7,32.0,28.59,NNW,332,0.0,0.0,22,0.00,,,-99.99,wx200d/1.3,2013-03-17 03:58:00,